FW0807 Weather Reports


Display with metric or nautical units.
time (UTC)temp
F
wind
direction
speed
MPH
gust
MPH
rain 1hr
in
rain 24hr
in
rain mn
in
humidity
%
barometer
mb
20260508073101 45 355 0.0 0.0 0.00 0.00 0.00 96 1015.9
20260508071540 45 355 0.0 0.0 0.00 0.00 0.00 96 1016.0
20260508070046 45 355 0.0 0.0 0.00 0.00 0.00 96 1016.1
20260508064538 45 355 0.0 0.0 0.00 0.00 0.00 96 1016.3
20260508063038 45 355 0.0 0.0 0.00 0.00 0.00 96 1016.5
20260508061541 45 355 0.0 0.0 0.00 0.00 0.00 96 1016.5
20260508060039 45 355 0.0 0.0 0.00 0.00 0.00 95 1016.4
20260508054536 46 355 0.0 1.0 0.00 0.00 0.00 95 1016.3
20260508053034 46 355 0.0 0.0 0.00 0.00 0.00 95 1016.3
20260508051528 46 355 0.0 0.0 0.00 0.00 0.00 95 1016.2
20260508050027 46 355 0.0 1.0 0.00 0.00 0.00 95 1016.1
20260508044527 47 355 0.0 0.0 0.00 0.00 0.00 94 1016.1
20260508043026 47 355 0.0 0.0 0.00 0.00 0.00 94 1016.3
20260508041526 47 355 0.0 0.0 0.00 0.00 0.00 94 1016.3
20260508040025 48 355 0.0 0.0 0.00 0.00 0.00 93 1016.3
20260508034537 48 355 0.0 0.0 0.00 0.00 0.00 93 1016.2
20260508033024 49 355 0.0 0.0 0.00 0.00 0.00 92 1016.2
20260508031524 49 355 0.0 0.0 0.00 0.00 0.00 92 1016.2
20260508030023 50 355 0.0 2.0 0.00 0.00 0.00 91 1016.1
20260508024546 50 287 0.0 0.0 0.00 0.00 0.00 90 1016.2
20260508023023 50 287 0.0 0.0 0.00 0.00 0.00 90 1015.9
20260508021523 51 287 0.0 0.0 0.00 0.00 0.00 88 1015.7
20260508020020 52 286 0.0 0.0 0.00 0.00 0.00 88 1015.4
20260508014523 53 286 0.0 1.0 0.00 0.00 0.00 87 1015.2
20260508013022 54 286 0.0 0.0 0.00 0.00 0.00 83 1015.0
20260508011521 56 286 0.0 0.0 0.00 0.00 0.00 80 1015.0
20260508010018 58 286 0.0 0.0 0.00 0.00 0.00 77 1015.1
20260508004535 60 286 0.0 0.0 0.00 0.00 0.00 73 1015.1
20260508003018 62 286 0.0 0.0 0.00 0.00 0.00 67 1015.2
20260508001530 65 286 0.0 1.0 0.00 0.00 0.00 63 1015.0
20260508000016 66 286 0.0 1.0 0.00 0.00 0.00 57 1015.1
20260507234516 68 279 0.0 2.0 0.00 0.00 0.00 51 1015.0
20260507233017 68 266 2.0 4.0 0.00 0.00 0.00 48 1015.0
20260507231514 68 355 2.0 5.0 0.00 0.00 0.00 47 1015.0
20260507230013 68 331 1.0 4.0 0.00 0.00 0.00 46 1015.2
20260507224514 68 61 2.0 4.0 0.00 0.00 0.00 46 1015.2
20260507223013 68 5 3.0 6.0 0.00 0.00 0.00 45 1015.2
20260507221512 68 355 3.0 8.0 0.00 0.00 0.00 45 1015.2
20260507220012 69 15 1.0 4.0 0.00 0.00 0.00 45 1015.2
20260507214508 69 316 2.0 8.0 0.00 0.00 0.00 43 1015.4
20260507213009 69 5 1.0 5.0 0.00 0.00 0.00 45 1015.4
20260507211505 69 257 2.0 8.0 0.00 0.00 0.00 48 1015.6
20260507210005 69 309 3.0 10.0 0.00 0.00 0.00 44 1015.7
20260507204503 68 269 2.0 8.0 0.00 0.00 0.00 46 1015.7
20260507203132 68 257 2.0 11.0 0.00 0.00 0.00 46 1016.1
20260507201557 68 223 1.0 10.0 0.00 0.00 0.00 48 1016.3
20260507200100 67 317 1.0 9.0 0.00 0.00 0.00 50 1016.4
20260507194606 67 242 3.0 9.0 0.00 0.00 0.00 49 1016.6
20260507193050 67 218 2.0 6.0 0.00 0.00 0.00 49 1016.8
20260507191549 67 231 4.0 12.0 0.00 0.00 0.00 51 1017.1
20260507190054 65 321 0.0 7.0 0.00 0.00 0.00 52 1017.1
20260507184546 65 282 3.0 7.0 0.00 0.00 0.00 57 1017.3
20260507183042 66 205 4.0 8.0 0.00 0.00 0.00 56 1017.4
20260507181543 65 194 3.0 8.0 0.00 0.00 0.00 54 1017.4
20260507180043 64 192 3.0 7.0 0.00 0.00 0.00 59 1017.8
20260507174544 64 42 3.0 6.0 0.00 0.00 0.00 58 1018.0
20260507173108 64 235 0.0 5.0 0.00 0.00 0.00 53 1018.2
20260507171540 63 260 1.0 7.0 0.00 0.00 0.00 53 1018.5
20260507170038 63 229 3.0 7.0 0.00 0.00 0.00 55 1018.7
20260507164534 62 69 2.0 5.0 0.00 0.00 0.00 56 1018.8
20260507163028 62 309 2.0 6.0 0.00 0.00 0.00 60 1018.9
20260507161523 61 209 0.0 3.0 0.00 0.00 0.00 62 1019.0
20260507160021 60 204 1.0 4.0 0.00 0.00 0.00 62 1019.0
20260507154518 60 163 2.0 6.0 0.00 0.00 0.00 66 1019.0
20260507153016 60 319 0.0 4.0 0.00 0.00 0.00 64 1019.0
20260507151515 59 69 0.0 4.0 0.00 0.00 0.00 65 1019.1
20260507150008 57 49 2.0 5.0 0.00 0.00 0.00 67 1019.3
20260507144505 57 199 2.0 5.0 0.00 0.00 0.00 68 1019.5
20260507143103 56 53 0.0 4.0 0.00 0.00 0.00 70 1019.5
20260507141601 56 30 0.0 2.0 0.00 0.00 0.00 72 1019.5
20260507140050 54 34 1.0 3.0 0.00 0.00 0.00 76 1019.4
20260507134551 53 19 0.0 4.0 0.00 0.00 0.00 77 1019.4
20260507133108 52 11 1.0 3.0 0.00 0.00 0.00 81 1019.6
20260507131543 50 297 1.0 4.0 0.00 0.00 0.00 88 1019.6
20260507130036 47 315 0.0 2.0 0.00 0.00 0.00 95 1019.4
20260507124529 45 296 0.0 2.0 0.00 0.00 0.00 96 1019.1
20260507123036 43 327 0.0 0.0 0.00 0.00 0.00 96 1018.9
20260507121525 41 327 0.0 0.0 0.00 0.00 0.00 96 1018.7
20260507120024 40 327 0.0 0.0 0.00 0.00 0.00 95 1018.6
20260507114522 39 327 0.0 1.0 0.00 0.00 0.00 95 1018.5
20260507113023 39 13 0.0 0.0 0.00 0.00 0.00 95 1018.6
20260507111518 39 13 0.0 0.0 0.00 0.00 0.00 94 1018.7
20260507110017 39 13 0.0 0.0 0.00 0.00 0.00 94 1018.5
20260507104515 40 13 0.0 0.0 0.00 0.00 0.00 94 1018.3
20260507103014 40 13 0.0 1.0 0.00 0.00 0.00 94 1018.1
20260507101512 41 14 0.0 0.0 0.00 0.00 0.00 93 1017.9
20260507100009 41 14 0.0 0.0 0.00 0.00 0.00 93 1017.9
20260507094505 42 14 0.0 0.0 0.00 0.00 0.00 91 1017.8
20260507093004 44 5 2.0 4.0 0.00 0.00 0.00 92 1017.8
20260507091503 44 15 0.0 0.0 0.00 0.00 0.00 93 1017.9
20260507090105 44 9 0.0 0.0 0.00 0.00 0.00 93 1017.9
20260507084601 44 355 0.0 2.0 0.00 0.00 0.00 93 1017.7
20260507083059 45 26 0.0 2.0 0.00 0.00 0.00 94 1017.8
20260507081557 45 16 0.0 3.0 0.00 0.00 0.00 95 1017.8
20260507080059 45 22 0.0 3.0 0.00 0.00 0.00 96 1017.6
20260507074554 45 5 0.0 3.0 0.00 0.00 0.00 96 1017.6
20260507073103 45 317 0.0 3.0 0.00 0.00 0.00 96 1017.5